Total_Precipitation_Accumulation
0.07 0.03 0.03 0.02 0.03 0.05 0.04 0.05 0.06 0.08 0.07 0.07 0.06 0.05 0.06 0.06 0.05 0.04 0.04 0.05 0.07 0.12 0.17 0.19 0.21 0.24 0.26 0.19 0.11 0.07 0.07 0.06 0.07 0.09 0.11 0.14 0.15 0.16 0.16 0.13 0.13 0.10 0.08
0.07 0.03 0.02 0.02 0.03 0.05 0.04 0.05 0.06 0.07 0.07 0.06 0.06 0.05 0.05 0.05 0.06 0.06 0.06 0.07 0.09 0.12 0.13 0.14 0.16 0.18 0.16 0.10 0.07 0.06 0.07 0.08 0.15 0.23 0.30 0.30 0.28 0.24 0.25 0.26 0.24 0.15 0.09
0.06 0.04 0.03 0.02 0.02 0.03 0.04 0.06 0.07 0.08 0.08 0.08 0.07 0.06 0.06 0.06 0.07 0.07 0.07 0.08 0.12 0.14 0.13 0.12 0.11 0.11 0.09 0.07 0.06 0.07 0.09 0.14 0.26 0.41 0.64 0.77 0.61 0.46 0.34 0.28 0.25 0.17 0.14
0.06 0.04 0.03 0.02 0.02 0.02 0.03 0.05 0.07 0.08 0.07 0.07 0.06 0.05 0.06 0.06 0.07 0.08 0.09 0.11 0.15 0.18 0.17 0.13 0.10 0.08 0.06 0.05 0.05 0.08 0.11 0.18 0.33 0.58 1.12 0.99 0.94 0.75 0.41 0.29 0.23 0.24 0.30
0.05 0.03 0.03 0.03 0.03 0.03 0.03 0.03 0.06 0.07 0.06 0.07 0.06 0.06 0.07 0.07 0.07 0.09 0.14 0.17 0.19 0.19 0.20 0.18 0.13 0.09 0.05 0.05 0.06 0.09 0.14 0.23 0.45 0.75 1.17 1.34 1.43 0.91 0.51 0.38 0.33 0.32 0.39
0.06 0.03 0.03 0.03 0.04 0.03 0.03 0.03 0.06 0.07 0.07 0.07 0.07 0.08 0.09 0.09 0.10 0.13 0.21 0.26 0.25 0.22 0.26 0.25 0.20 0.14 0.07 0.06 0.07 0.11 0.16 0.29 0.46 0.75 1.14 1.60 1.41 0.90 0.62 0.48 0.42 0.41 0.45
0.08 0.04 0.04 0.06 0.07 0.05 0.04 0.05 0.07 0.08 0.11 0.13 0.12 0.12 0.12 0.12 0.14 0.19 0.26 0.28 0.27 0.26 0.27 0.24 0.17 0.10 0.08 0.09 0.10 0.12 0.20 0.31 0.44 0.79 1.15 1.50 1.24 0.79 0.58 0.46 0.41 0.40 0.45
0.11 0.06 0.05 0.07 0.09 0.08 0.08 0.09 0.11 0.12 0.13 0.15 0.15 0.15 0.13 0.12 0.15 0.21 0.24 0.27 0.28 0.25 0.20 0.16 0.13 0.11 0.12 0.13 0.13 0.16 0.22 0.25 0.35 0.74 1.03 1.13 0.84 0.58 0.44 0.37 0.31 0.27 0.29
0.17 0.15 0.13 0.13 0.12 0.13 0.17 0.19 0.20 0.18 0.18 0.18 0.16 0.14 0.12 0.13 0.16 0.20 0.24 0.29 0.28 0.20 0.15 0.14 0.12 0.10 0.10 0.10 0.10 0.12 0.16 0.23 0.30 0.55 0.93 1.01 0.62 0.50 0.43 0.33 0.25 0.23 0.24
0.38 0.37 0.35 0.29 0.23 0.21 0.23 0.26 0.27 0.27 0.26 0.22 0.18 0.14 0.15 0.19 0.21 0.24 0.21 0.23 0.22 0.17 0.13 0.11 0.09 0.07 0.06 0.06 0.06 0.09 0.14 0.16 0.21 0.47 0.77 0.76 0.61 0.61 0.56 0.43 0.30 0.24 0.23
0.79 0.77 0.65 0.55 0.41 0.38 0.36 0.31 0.33 0.33 0.32 0.27 0.24 0.21 0.23 0.27 0.30 0.32 0.27 0.30 0.24 0.19 0.15 0.12 0.10 0.09 0.08 0.06 0.07 0.10 0.11 0.11 0.23 0.44 0.72 0.70 0.75 0.78 0.75 0.63 0.47 0.36 0.30
1.17 1.02 0.80 0.76 0.69 0.63 0.50 0.47 0.49 0.42 0.37 0.34 0.39 0.34 0.37 0.54 0.62 0.57 0.56 0.45 0.40 0.33 0.25 0.22 0.20 0.16 0.10 0.09 0.09 0.10 0.10 0.12 0.22 0.39 0.61 0.72 0.82 0.90 0.87 0.74 0.58 0.47 0.41
1.29 1.06 0.93 0.98 0.96 0.95 0.93 0.93 0.82 0.75 0.69 0.58 0.65 0.62 0.65 0.69 0.67 0.72 0.72 0.62 0.57 0.53 0.46 0.44 0.32 0.24 0.19 0.20 0.21 0.18 0.16 0.18 0.23 0.34 0.56 0.73 0.79 0.92 0.99 0.85 0.69 0.62 0.54
1.60 1.30 1.08 1.03 1.10 1.24 1.25 1.21 1.19 1.14 1.08 0.97 0.90 0.83 0.90 0.97 0.98 0.93 1.03 1.00 0.96 0.89 0.81 0.72 0.60 0.48 0.41 0.39 0.43 0.41 0.35 0.32 0.34 0.44 0.58 0.67 0.76 0.97 1.06 0.97 0.82 0.75 0.68
2.01 1.78 1.48 1.38 1.32 1.33 1.44 1.42 1.20 1.22 1.26 1.34 1.25 1.15 1.21 1.14 1.16 1.30 1.30 1.37 1.30 1.33 1.23 1.07 0.89 0.80 0.70 0.62 0.64 0.64 0.57 0.57 0.55 0.61 0.76 0.84 0.89 1.04 1.18 1.17 1.05 0.95 0.89
2.17 2.07 1.83 1.58 1.54 1.50 1.62 1.70 1.55 1.45 1.45 1.48 1.50 1.40 1.44 1.45 1.45 1.50 1.53 1.60 1.50 1.50 1.52 1.39 1.17 1.05 0.96 0.86 0.80 0.78 0.76 0.80 0.81 0.79 0.92 0.98 0.98 0.99 1.13 1.31 1.32 1.28 1.27
2.25 2.09 2.07 1.88 1.96 1.98 2.08 2.06 2.08 2.03 1.99 1.90 1.81 1.82 1.77 1.74 1.76 1.70 1.85 1.94 1.79 1.73 1.74 1.64 1.54 1.30 1.27 1.25 1.19 1.09 1.01 0.99 1.06 1.09 1.12 1.20 1.24 1.17 1.14 1.25 1.35 1.39 1.42
2.06 2.10 2.19 2.03 2.08 2.21 2.18 2.09 2.15 2.34 2.36 2.28 2.19 2.21 2.07 2.04 2.08 2.15 2.11 2.04 1.99 1.95 1.93 1.98 1.82 1.59 1.53 1.63 1.58 1.39 1.20 1.20 1.31 1.33 1.30 1.35 1.43 1.38 1.36 1.26 1.29 1.37 1.43
2.01 1.91 2.02 2.19 2.14 2.26 2.27 2.21 2.30 2.54 2.67 2.70 2.66 2.56 2.43 2.41 2.42 2.52 2.60 2.47 2.28 2.17 2.16 2.05 2.00 1.89 1.87 1.86 1.66 1.47 1.29 1.24 1.31 1.36 1.34 1.40 1.50 1.56 1.54 1.36 1.34 1.47 1.53
1.96 1.96 1.99 2.21 2.19 2.35 2.48 2.37 2.44 2.51 2.60 2.73 2.85 2.94 3.07 3.10 3.05 2.99 2.88 2.74 2.56 2.45 2.40 2.30 2.24 2.17 2.04 1.89 1.60 1.43 1.25 1.16 1.19 1.26 1.31 1.32 1.33 1.37 1.38 1.33 1.31 1.30 1.39
2.06 2.09 2.01 2.06 2.25 2.35 2.49 2.61 2.85 2.86 2.83 3.06 3.33 3.48 3.66 3.74 3.56 3.49 3.37 3.18 2.98 2.77 2.62 2.42 2.28 2.20 2.03 1.84 1.66 1.50 1.27 1.07 1.07 1.11 1.12 1.14 1.17 1.16 1.18 1.21 1.28 1.24 1.20
2.15 2.12 2.16 2.36 2.44 2.55 2.88 3.32 3.72 4.03 4.19 4.25 4.40 4.42 4.33 4.19 4.06 3.93 3.82 3.58 3.32 3.07 2.82 2.60 2.34 2.17 1.98 1.79 1.69 1.68 1.50 1.29 1.02 0.87 0.87 0.87 0.89 0.88 0.91 0.99 0.99 0.99 0.97
2.01 2.19 2.25 2.55 2.88 3.23 3.72 4.26 4.64 4.99 5.21 5.12 4.93 4.78 4.55 4.34 4.13 3.81 3.62 3.55 3.32 2.96 2.71 2.51 2.29 2.10 1.90 1.74 1.59 1.63 1.55 1.38 1.15 0.99 0.85 0.75 0.74 0.78 0.81 0.88 0.91 0.86 0.80
1.74 2.03 2.32 2.61 3.10 3.85 4.56 5.10 5.51 5.69 5.68 5.57 5.32 4.93 4.53 4.19 3.88 3.55 3.27 3.03 2.81 2.53 2.29 2.13 2.03 1.93 1.83 1.71 1.59 1.38 1.18 1.02 1.04 1.03 0.93 0.82 0.75 0.76 0.73 0.71 0.74 0.77 0.74
1.50 1.83 2.21 2.65 3.27 3.91 4.57 5.13 5.56 5.73 5.64 5.39 4.95 4.44 3.94 3.47 3.11 2.83 2.55 2.28 2.06 1.86 1.68 1.52 1.49 1.60 1.66 1.64 1.61 1.51 1.33 1.13 0.98 0.93 0.94 0.89 0.85 0.84 0.79 0.73 0.69 0.69 0.67
1.31 1.64 2.00 2.42 2.97 3.47 3.88 4.39 4.71 4.88 4.83 4.50 4.02 3.44 2.99 2.67 2.38 2.13 1.89 1.67 1.48 1.31 1.17 1.12 1.11 1.18 1.28 1.35 1.38 1.37 1.35 1.33 1.23 1.09 1.05 1.01 0.98 0.98 0.92 0.86 0.81 0.76 0.72